Theta_e
333 332 330 329 330 329 330 328 328 330 330 327 328 328 328 331 332 327 328 339 342 343 343 343 342 342 345 347 349 348 347 347 346 346 344 344 342 342 340 338 337 341 341
333 330 330 329 328 328 329 328 327 327 326 327 326 328 329 328 328 328 328 330 342 343 343 341 343 342 341 346 347 347 347 346 347 345 344 343 342 340 339 340 341 341 341
332 331 329 329 328 329 330 328 326 327 325 326 324 327 328 329 325 327 327 329 333 342 342 342 341 342 341 340 347 348 347 346 347 345 343 343 342 342 341 342 341 341 341
332 330 328 327 328 328 327 326 325 323 323 324 323 325 326 325 325 325 327 328 329 331 338 341 342 342 342 341 345 347 346 346 345 343 342 343 342 342 342 342 341 340 339
333 330 329 328 328 327 326 324 324 323 321 322 324 323 323 322 323 327 326 327 326 330 329 336 340 341 343 343 344 347 346 346 344 343 343 342 342 342 341 341 340 339 338
333 330 328 327 328 326 323 324 323 322 321 321 323 322 321 322 324 323 325 328 326 326 327 329 331 335 343 343 343 346 347 346 344 344 342 341 341 341 340 339 338 338 337
333 330 328 327 327 326 325 323 322 321 319 320 317 316 318 321 322 323 323 324 325 328 325 327 327 328 333 342 343 344 345 346 346 344 341 340 341 340 339 338 337 337 335
332 329 327 327 326 325 323 323 322 318 319 320 315 313 309 313 318 322 322 323 323 324 326 326 329 328 330 334 338 343 345 346 347 345 341 339 340 339 338 337 337 334 331
330 329 328 327 326 324 322 322 322 322 318 319 319 314 307 306 309 316 319 320 321 322 324 327 330 330 331 333 339 341 343 343 345 344 342 340 340 339 338 337 335 329 327
330 330 329 328 325 323 322 322 324 320 317 315 317 320 315 313 307 307 315 319 319 321 323 323 327 328 330 332 338 340 340 340 343 344 341 339 339 338 337 334 329 328 328
329 330 327 325 324 323 323 322 322 320 319 316 315 315 315 316 314 309 307 312 316 318 320 322 324 325 329 333 335 337 338 337 337 339 339 339 339 337 334 330 329 327 331
325 327 328 325 324 323 322 322 321 321 320 319 319 318 315 314 313 312 307 307 310 315 321 321 321 324 329 333 337 337 334 332 331 332 334 335 335 335 330 328 329 331 330
323 324 325 324 324 324 323 322 322 322 321 320 320 320 320 318 317 315 312 309 310 314 318 326 320 321 327 335 337 337 334 329 328 328 329 330 330 330 329 328 330 330 329
323 325 324 324 325 325 323 323 321 321 322 322 322 322 321 320 318 316 315 311 309 311 320 323 325 323 325 330 337 334 331 327 326 324 325 325 325 325 325 328 329 330 330
326 325 325 324 325 324 324 321 321 322 322 321 321 323 321 323 323 319 315 316 312 308 315 321 323 327 326 327 333 332 330 325 324 321 320 320 320 322 325 325 325 326 326
327 327 325 325 324 323 323 322 321 324 321 323 322 321 320 320 322 321 318 320 315 313 316 323 323 324 326 326 329 328 327 324 321 319 318 318 319 321 321 321 322 323 324
326 326 326 324 323 323 323 322 320 324 324 323 323 322 320 319 319 322 321 318 317 317 318 321 324 325 324 325 326 325 326 324 320 319 320 319 317 318 319 319 319 320 320
325 326 326 325 326 327 323 321 323 326 323 321 321 322 318 322 321 319 321 317 316 318 320 318 321 322 322 323 322 321 322 322 321 321 319 318 317 316 316 315 315 315 314
325 326 324 325 324 326 326 323 325 325 323 320 320 319 321 322 321 320 319 317 317 319 321 320 318 321 321 322 320 320 319 320 321 321 318 317 315 315 314 313 312 311 309
325 324 324 325 326 326 325 325 325 323 321 321 323 321 323 324 322 321 320 319 319 321 321 320 318 318 319 320 319 316 315 318 317 317 316 315 314 313 312 311 311 310 307
324 325 327 326 326 327 326 324 324 323 322 322 324 325 324 324 322 323 322 321 321 319 319 318 317 317 317 316 314 315 313 313 312 313 311 310 309 308 308 310 312 310 305
323 323 321 322 322 321 305 314 320 322 322 320 319 320 321 319 319 314 316 316 320 321 319 318 317 315 315 315 315 313 311 310 307 313 309 305 307 303 303 302 306 304 302
320 319 319 321 318 314 302 308 313 321 319 319 320 320 321 321 321 319 311 310 310 311 315 319 316 316 314 315 315 313 312 312 311 312 309 302 302 298 298 301 302 301 300
319 320 320 316 315 312 300 304 312 325 322 320 320 320 319 319 318 321 320 319 319 319 319 320 318 317 317 318 318 316 313 312 313 312 309 300 298 295 296 297 300 299 298
318 316 318 315 314 314 301 305 318 322 321 319 320 322 321 320 304 306 320 318 316 313 306 305 306 304 302 304 311 315 311 310 308 309 309 302 299 296 295 294 295 299 297
319 319 318 315 312 316 301 306 316 321 319 318 317 316 307 314 301 305 320 318 315 315 316 314 313 309 310 307 308 314 313 308 309 307 311 302 299 298 295 295 292 294 293
Wind_Speed
6 5 5 4 4 4 5 5 5 5 5 5 5 6 6 8 8 3 3 15 11 18 17 15 14 13 12 11 12 15 18 20 20 19 18 17 17 15 16 15 14 11 10
7 6 5 5 5 4 4 4 5 5 5 5 5 6 7 5 6 5 4 5 10 15 17 15 15 14 13 12 12 15 17 19 21 19 18 17 17 18 17 15 15 14 11
9 7 5 4 5 4 5 4 4 3 3 3 5 4 3 5 4 4 3 4 4 11 12 12 12 13 13 14 14 17 17 20 20 20 18 18 17 16 17 17 16 14 15
8 6 5 4 4 4 4 4 4 4 4 4 4 4 3 3 5 4 4 3 3 2 8 12 12 13 14 15 15 17 18 20 19 19 18 18 17 17 16 14 12 17 17
8 6 5 5 5 4 4 3 3 4 3 4 4 4 4 4 5 2 5 5 5 5 4 8 12 13 14 14 15 17 19 19 20 21 20 19 18 16 13 14 17 20 19
7 6 5 5 5 4 3 3 4 3 3 4 3 3 3 4 4 4 4 3 4 5 5 5 4 7 14 14 14 17 20 22 22 22 21 19 17 14 14 18 20 19 18
7 6 4 5 4 5 5 4 3 4 3 2 2 2 2 4 5 4 3 3 4 5 5 5 4 4 6 15 14 16 20 22 24 23 20 19 17 14 18 21 20 19 18
7 6 6 5 5 3 4 4 4 2 3 4 3 2 2 3 2 4 3 4 6 4 4 6 5 6 5 5 7 13 19 22 26 25 22 18 17 18 22 22 21 21 18
6 6 6 5 5 4 4 4 5 5 3 3 3 4 1 4 1 1 4 4 4 3 4 4 6 6 7 7 9 10 18 20 25 26 23 20 20 24 24 23 21 20 17
6 6 6 5 5 4 5 4 4 3 3 4 1 4 2 3 1 2 2 2 4 4 3 2 4 5 6 5 11 14 17 19 25 25 23 23 25 26 25 24 21 18 16
5 5 6 5 5 4 4 5 3 5 4 3 3 2 2 1 1 2 2 2 2 2 2 4 4 4 6 7 7 10 15 19 22 24 24 25 26 26 26 23 20 16 14
3 3 5 5 5 4 5 4 5 6 5 4 3 3 3 4 4 4 2 0 3 2 1 1 3 2 4 6 10 12 14 15 14 21 22 24 26 25 24 21 18 15 15
2 4 5 5 4 4 5 5 5 5 5 4 5 4 3 4 3 2 3 2 3 0 1 2 1 1 1 4 7 13 18 18 19 19 18 22 24 24 23 21 17 16 14
3 3 5 5 6 4 4 4 3 3 5 4 5 5 3 1 2 2 4 4 3 3 1 2 2 2 1 2 7 16 12 23 20 20 22 22 23 22 21 17 14 12 12
2 4 5 5 4 5 5 5 3 4 4 4 5 4 3 2 3 3 2 3 5 4 1 3 2 0 2 3 7 9 13 25 25 25 25 24 22 16 11 11 9 11 11
4 5 5 4 4 4 6 5 2 2 4 3 3 4 2 2 3 3 3 3 3 4 4 2 1 2 3 3 10 11 16 25 28 27 25 25 18 12 11 9 9 10 10
5 5 5 5 5 5 5 4 3 4 4 4 3 4 4 3 3 3 3 3 3 3 7 3 3 3 3 7 9 13 15 16 15 27 25 22 15 14 12 10 10 12 11
4 5 5 5 5 6 5 4 4 4 5 4 4 4 4 3 4 3 3 4 5 3 9 9 4 2 5 8 10 12 11 11 14 20 21 18 17 12 12 12 11 11 10
4 3 3 5 5 6 5 4 3 5 4 3 4 3 3 5 4 4 4 6 5 5 8 8 5 3 4 10 11 11 12 12 10 21 17 15 13 12 11 10 10 9 9
5 4 4 4 4 5 5 4 4 5 5 3 2 3 5 7 6 5 5 7 7 9 9 8 8 7 6 9 12 13 12 9 10 8 9 11 11 11 10 9 9 9 9
4 4 5 5 5 4 3 5 5 6 6 5 3 4 4 6 10 6 4 5 9 7 8 9 8 7 8 9 12 9 12 9 7 4 7 5 6 5 5 7 9 10 11
5 6 6 6 5 4 3 8 7 6 5 5 5 4 3 3 5 8 8 6 8 11 10 8 6 11 9 10 10 11 12 11 5 2 5 4 3 4 3 2 7 11 12
5 6 6 6 6 5 5 7 8 4 4 4 5 5 5 4 7 8 9 9 9 9 9 11 13 11 13 14 13 12 11 7 4 6 9 4 2 3 2 4 9 11 12
6 5 5 6 6 3 3 6 7 5 5 5 4 5 6 6 6 9 9 10 10 9 11 9 12 12 14 12 11 10 9 8 9 5 4 4 1 1 2 1 7 8 9
5 3 5 6 6 3 0 8 6 5 6 5 4 5 6 8 8 10 10 11 12 10 13 15 14 17 14 14 11 10 8 11 7 3 1 4 3 3 2 2 3 7 8
5 5 5 5 7 4 5 9 6 4 5 4 4 4 7 9 10 11 10 11 11 10 12 13 11 13 12 11 10 6 10 11 7 3 4 4 3 4 1 1 3 3 3
Wind_Direction
201 197 196 189 192 177 188 197 212 224 223 231 229 225 230 219 218 195 237 247 237 214 214 212 212 212 201 192 195 188 181 173 172 172 170 168 165 160 160 166 191 190 162
196 191 179 185 189 187 192 199 206 220 226 214 241 234 225 211 226 210 217 260 258 206 199 206 209 222 213 198 194 192 187 179 174 170 170 168 169 170 171 183 192 186 167
195 181 169 160 183 182 179 196 214 208 216 234 237 240 232 241 246 220 205 232 243 185 198 206 211 216 221 214 199 197 192 184 176 169 171 169 171 174 175 190 194 180 151
182 166 154 173 160 166 174 181 199 229 224 214 237 243 228 222 249 226 215 213 214 218 208 208 212 214 223 223 210 199 196 188 178 169 172 171 176 183 186 187 183 139 130
171 161 178 158 160 164 179 187 225 203 223 229 226 236 243 233 246 231 223 226 207 215 213 222 217 212 215 221 219 204 199 191 180 168 172 173 179 185 181 163 140 127 128
179 181 173 168 162 167 190 213 211 213 223 232 229 245 238 242 254 231 234 235 226 219 210 209 214 208 204 214 222 214 198 197 179 170 171 173 180 175 164 145 129 132 129
176 176 164 167 175 183 199 188 190 210 241 195 103 316 279 237 236 237 218 219 244 227 216 204 204 186 199 204 213 226 198 200 182 175 169 174 170 171 153 132 135 130 130
175 164 164 184 180 167 203 196 178 185 212 182 154 122 299 318 250 230 213 214 225 218 214 216 198 184 181 184 197 225 200 204 187 175 167 168 164 154 141 141 136 134 125
155 152 179 178 185 181 191 207 189 188 194 199 207 145 117 239 318 340 222 215 224 212 196 193 195 184 187 185 189 211 199 196 190 175 169 165 154 148 146 139 135 130 131
165 176 181 173 177 181 196 202 186 179 147 186 232 237 176 145 160 340 347 252 209 225 210 214 198 195 182 180 194 193 201 191 188 171 165 163 152 149 141 135 133 134 145
175 198 173 171 183 189 198 203 196 188 179 158 180 172 182 194 167 143 250 282 336 265 238 202 211 196 196 186 187 194 185 184 182 170 164 157 152 145 140 135 132 138 150
202 194 193 171 191 186 204 203 196 191 184 187 189 208 184 167 198 174 163 149 183 272 232 139 189 205 223 195 186 186 172 178 157 161 154 147 144 141 136 131 137 155 150
236 218 177 168 179 195 196 179 192 195 185 189 200 219 219 202 191 171 123 181 140 315 102 95 129 264 265 201 184 162 153 141 128 132 148 144 140 135 135 139 156 151 150
202 182 186 184 190 179 179 159 171 199 193 197 187 217 213 188 170 152 157 141 64 41 52 119 67 56 301 21 160 156 145 137 142 139 135 134 129 130 140 153 146 150 144
191 166 164 172 176 175 160 169 193 199 181 176 184 174 160 172 146 177 154 143 145 139 190 61 88 310 75 23 135 136 148 134 128 127 123 121 123 132 124 128 152 138 140
162 152 164 166 150 174 168 184 170 175 148 134 139 140 147 145 207 190 146 162 150 132 119 77 57 88 82 62 111 114 131 119 123 120 119 122 125 129 132 127 125 127 125
157 165 165 160 156 158 183 166 165 165 172 155 167 165 185 185 168 193 144 149 145 122 126 98 83 108 80 128 115 116 125 126 125 123 127 133 131 117 115 113 110 116 123
159 173 175 165 181 174 174 168 197 147 158 176 185 189 194 192 125 141 144 148 118 134 136 128 111 107 110 109 100 105 110 121 124 122 124 117 121 139 126 131 131 130 137
173 191 150 160 148 158 157 189 159 162 179 176 182 177 143 123 101 101 108 100 107 110 119 126 116 99 97 119 109 104 108 105 108 119 120 122 127 114 120 125 131 126 119
167 176 166 150 139 131 131 131 116 114 127 120 154 182 123 130 129 105 88 103 120 125 129 120 122 121 117 122 116 120 106 106 115 103 87 97 103 104 112 124 123 119 120
161 142 114 91 88 97 120 121 116 108 115 116 100 105 110 137 126 124 124 135 137 141 136 133 133 132 130 136 131 125 116 116 91 109 104 87 93 81 72 79 109 130 122
118 111 101 102 90 77 353 129 125 121 131 132 114 101 110 111 115 144 139 148 162 152 149 150 136 140 136 128 125 128 131 134 115 36 96 65 62 79 85 91 124 119 120
113 111 107 107 90 92 49 130 127 126 135 129 125 117 99 114 127 107 101 101 96 110 131 141 140 145 131 138 133 136 139 130 120 134 110 80 57 80 50 113 133 139 148
123 126 111 109 111 77 43 118 101 94 88 96 111 109 104 96 110 126 113 100 90 100 120 131 131 135 129 134 132 134 126 101 98 98 99 110 170 123 144 140 149 154 157
121 128 125 129 115 102 116 118 99 81 79 75 79 87 123 119 127 124 118 109 92 80 64 81 99 106 109 112 125 126 118 119 121 158 122 115 172 128 172 200 196 183 175
133 125 118 130 127 124 93 115 104 101 96 90 64 61 77 126 132 122 131 125 112 113 108 103 100 90 101 102 102 112 142 143 142 110 211 107 136 148 210 214 180 177 198